Wind_Speed
14 14 15 16 16 15 15 14 13 12 12 11 10 10 9 9 10 10 10 10 11 11 12 12 13 13 14 14 15 16 16 17 17 18 19 19 20 21 21 21 22 23 23
14 15 16 17 17 17 16 15 14 13 12 11 11 10 10 11 11 11 11 11 12 12 13 13 14 14 14 15 16 16 17 18 18 18 18 19 20 20 21 21 22 23 24
14 15 16 17 18 18 17 16 14 13 13 12 12 11 12 12 13 12 12 12 12 12 13 14 14 15 16 16 17 17 18 18 19 19 20 20 20 21 22 22 23 23 23
14 15 16 17 18 19 19 18 16 14 14 14 14 13 13 13 14 14 14 13 13 13 14 14 15 15 16 17 17 18 18 19 20 20 21 21 21 22 23 23 23 24 25
15 17 18 18 19 20 20 20 18 15 15 15 14 13 13 14 15 15 14 14 14 15 15 15 16 16 17 17 18 18 19 20 21 21 21 22 22 23 23 24 24 25 25
17 18 18 19 20 21 21 20 19 17 16 15 15 15 15 15 16 16 15 15 16 16 17 17 18 18 18 18 18 19 20 21 22 22 23 23 24 24 24 25 25 26 26
17 18 19 19 20 21 21 20 19 18 17 16 16 16 17 17 17 17 16 16 17 17 18 19 19 19 19 19 20 21 22 22 23 23 24 25 25 25 26 26 27 27 27
18 19 20 20 20 21 21 21 20 20 19 19 18 18 18 18 17 17 17 18 18 18 19 19 20 20 21 21 22 23 23 23 24 25 26 26 26 26 27 27 28 28 29
19 20 20 21 21 21 22 21 21 21 21 20 20 20 19 19 19 18 19 19 20 20 20 21 21 21 22 22 23 24 24 25 25 26 26 27 27 27 27 28 28 29 29
21 21 22 22 22 23 23 23 23 22 22 22 21 21 20 20 20 20 20 20 21 21 22 22 22 22 23 23 24 24 25 26 27 27 27 27 28 28 28 29 29 29 30
22 22 23 23 24 24 25 26 25 24 23 23 22 22 21 22 21 21 21 21 22 23 24 24 24 24 24 24 25 25 26 27 28 28 28 28 28 28 29 29 30 30 30
24 24 25 25 25 26 26 27 27 27 25 25 24 23 23 23 23 23 23 23 24 24 24 25 25 25 26 26 26 26 26 27 28 28 28 28 28 28 29 29 29 29 29
26 26 27 27 27 27 27 27 28 27 27 27 26 24 24 24 24 24 24 25 26 26 26 26 26 27 27 27 27 27 28 28 28 28 28 28 28 28 29 29 29 29 29
28 28 28 28 28 28 28 28 28 28 27 26 27 27 27 26 26 26 26 27 27 27 27 26 27 27 27 28 28 28 29 29 28 28 29 29 29 29 29 29 30 30 30
29 30 30 30 30 29 30 30 29 29 29 28 28 28 27 27 27 28 28 27 27 27 27 27 27 28 28 28 29 29 29 29 29 29 29 29 29 29 30 30 30 30 30
31 32 32 32 31 31 31 31 30 29 29 29 28 28 28 28 28 28 28 28 28 28 28 28 28 28 29 29 29 30 30 30 30 30 30 30 29 29 29 30 30 30 30
33 33 33 33 33 33 33 32 31 30 30 30 30 30 30 30 29 30 29 29 29 29 29 29 29 29 30 30 30 31 31 30 30 30 30 29 29 29 29 29 29 29 29
34 34 34 34 33 34 34 33 32 32 31 31 31 31 31 31 31 31 30 30 30 30 30 30 30 30 30 31 31 31 31 30 30 30 30 29 29 28 28 28 29 29 28
34 34 34 34 34 33 33 32 33 33 32 32 31 32 32 32 32 32 31 31 30 30 30 30 30 30 30 31 31 30 30 31 31 30 30 29 28 28 28 28 29 29 29
34 34 34 34 34 34 34 34 34 33 33 32 32 32 32 31 32 32 32 31 30 30 31 31 31 31 31 31 31 30 30 30 30 30 29 29 28 29 29 29 29 29 29
35 35 35 35 34 34 34 34 34 33 33 33 32 32 32 33 33 32 31 31 31 31 30 30 31 31 31 31 30 30 30 30 29 30 30 29 29 29 29 30 30 30 30
36 36 35 35 35 35 35 35 34 34 33 33 33 32 32 32 32 32 31 31 31 30 30 30 31 31 31 31 30 30 30 30 30 30 30 30 29 30 30 31 31 30 30
35 35 35 35 35 35 35 34 34 33 33 33 33 32 32 32 32 31 31 31 31 30 30 31 31 31 31 31 31 31 31 31 30 31 30 30 30 31 31 32 32 32 31
34 34 34 34 33 34 34 34 33 33 32 32 32 33 32 32 31 31 31 30 30 30 31 31 31 31 31 31 31 31 31 31 31 31 31 31 31 32 32 32 32 32 32
33 34 33 33 33 33 33 33 33 32 32 32 32 31 31 31 31 31 30 31 30 31 31 31 31 31 31 32 32 32 31 31 31 31 31 31 32 32 33 32 32 32 32
33 33 33 33 33 33 33 32 32 32 32 31 31 30 31 31 30 30 30 31 30 31 31 31 31 31 31 31 32 32 31 31 31 31 31 32 32 32 32 32 32 32 32
Wind_Direction
11 11 9 6 3 359 355 353 350 348 344 342 341 338 333 329 326 317 306 299 292 290 291 291 293 295 297 297 298 299 299 299 299 300 299 297 297 295 293 291 291 291 290
4 5 5 3 1 358 354 349 345 342 341 339 338 335 333 330 326 322 314 307 300 296 294 293 293 296 299 300 301 300 299 299 300 301 301 300 300 299 298 295 294 293 292
359 359 358 358 355 352 349 343 341 337 334 332 329 328 327 326 323 323 320 315 309 305 301 297 295 296 298 301 303 303 302 301 301 300 300 299 298 298 298 296 296 296 294
352 352 350 350 351 350 347 343 338 336 331 329 327 326 325 324 323 323 323 318 316 313 310 306 302 302 300 302 303 303 303 302 301 301 300 300 300 299 298 297 296 296 295
343 343 343 344 344 345 344 343 340 333 330 329 328 326 324 323 323 322 321 319 315 313 312 309 306 305 303 304 305 304 303 303 302 301 301 301 300 300 298 298 297 297 296
335 338 339 340 340 342 342 342 341 338 331 328 326 326 325 323 321 321 319 316 315 313 311 309 307 305 305 304 304 303 303 303 305 304 304 302 302 301 300 299 299 298 297
327 331 333 333 335 337 339 339 338 338 337 330 326 324 323 321 320 320 320 317 314 312 311 310 309 307 305 304 304 304 304 304 303 303 303 303 302 302 301 299 298 297 296
318 321 324 327 330 332 334 334 333 332 330 329 326 322 321 320 319 317 315 315 313 312 312 312 310 308 306 306 306 306 306 305 304 302 303 303 301 301 301 300 298 297 297
308 311 315 320 322 324 328 329 328 328 325 323 323 322 321 319 317 315 313 312 312 312 312 311 309 308 308 308 306 307 307 307 307 305 303 303 302 301 301 301 300 300 299
301 305 309 312 316 318 321 322 323 323 322 319 318 318 318 317 315 314 313 312 311 310 310 311 310 309 307 308 308 307 307 307 306 306 304 303 302 300 301 301 301 300 300
298 300 305 308 311 313 315 316 318 319 319 318 315 314 313 313 311 311 311 311 310 309 309 309 310 310 309 308 308 307 307 307 306 305 304 303 303 301 301 302 302 302 301
299 301 302 306 308 311 312 313 315 315 314 314 312 310 310 310 309 309 309 309 309 308 309 308 309 309 309 308 307 307 308 309 308 307 306 305 305 304 303 303 304 303 302
296 298 299 303 306 306 309 311 311 312 311 310 308 308 309 309 308 307 307 307 307 308 308 307 307 307 307 308 307 307 308 309 309 308 307 307 306 305 304 304 303 303 303
294 296 297 299 301 303 305 307 309 310 309 306 305 306 307 307 306 306 306 306 306 306 306 306 306 306 306 307 306 306 307 308 307 307 306 306 305 305 305 304 303 302 302
293 294 295 295 297 299 301 304 306 306 305 304 304 303 305 305 306 305 305 306 305 305 305 305 305 305 305 306 305 305 306 307 307 307 306 305 305 306 306 305 304 303 303
290 291 291 293 295 296 298 300 302 302 303 302 302 302 303 303 303 303 304 305 305 305 304 303 303 303 305 305 305 305 306 307 306 306 306 306 306 306 305 305 304 304 304
290 290 290 291 292 294 294 296 297 298 299 298 298 300 301 302 302 302 303 303 304 303 302 302 302 303 304 304 304 305 305 306 306 306 305 305 305 305 305 305 305 305 305
289 289 288 288 289 292 293 294 295 295 295 296 297 298 299 300 300 300 301 302 302 302 302 302 302 303 303 303 304 305 305 305 305 305 305 305 305 305 306 306 306 307 307
287 289 288 287 288 290 292 293 294 294 294 295 296 297 298 298 299 299 299 300 300 300 301 301 302 303 303 304 304 304 305 305 304 304 304 305 304 304 305 306 307 307 306
286 287 287 288 289 290 292 293 294 293 294 294 295 296 296 296 297 298 298 298 298 299 300 301 301 302 303 303 303 304 305 305 304 303 304 304 304 305 305 305 306 305 305
286 287 288 288 289 291 292 294 294 295 295 294 293 295 295 296 296 297 297 297 297 298 299 300 301 301 302 303 303 303 303 303 303 303 303 304 305 305 304 305 305 305 305
285 287 287 287 288 290 292 293 293 293 294 294 293 294 295 295 295 295 295 296 297 297 298 299 299 300 301 302 301 301 300 300 301 302 303 303 304 304 304 304 304 304 304
285 285 286 286 287 288 289 290 291 292 292 292 292 292 293 294 294 293 294 294 296 297 299 299 299 300 300 300 300 300 300 299 300 301 301 301 302 302 304 304 303 302 302
285 285 286 287 288 288 288 288 289 291 291 291 291 292 293 295 295 293 293 294 296 298 299 299 300 300 300 300 299 299 298 299 299 301 302 302 302 302 302 302 302 302 301
285 287 287 288 288 288 287 287 289 290 291 291 291 292 293 294 295 294 294 295 296 297 299 299 300 300 300 300 299 299 298 299 300 300 300 301 301 301 301 302 303 302 302
287 288 289 288 287 286 286 287 288 290 290 291 291 291 292 293 293 295 296 296 296 298 300 299 299 300 300 300 300 299 298 298 299 299 299 300 301 302 302 301 302 302 302
Height
5918 5915 5913 5910 5907 5904 5901 5898 5896 5893 5891 5889 5887 5885 5883 5881 5880 5878 5876 5875 5874 5873 5872 5871 5869 5868 5866 5864 5863 5861 5859 5857 5855 5853 5851 5849 5847 5844 5842 5839 5837 5835 5832
5918 5915 5912 5909 5906 5903 5900 5897 5894 5892 5890 5887 5885 5883 5882 5880 5878 5876 5874 5872 5871 5869 5868 5867 5866 5864 5862 5860 5858 5856 5854 5852 5851 5848 5846 5844 5842 5839 5836 5834 5831 5829 5827
5917 5914 5911 5908 5905 5902 5899 5895 5892 5890 5887 5886 5884 5881 5879 5877 5875 5873 5871 5869 5867 5866 5865 5863 5862 5860 5858 5856 5854 5852 5850 5848 5846 5844 5841 5839 5836 5834 5831 5829 5826 5823 5821
5916 5913 5910 5907 5904 5900 5897 5894 5890 5887 5885 5883 5881 5879 5877 5875 5873 5870 5868 5866 5864 5863 5861 5859 5858 5856 5854 5852 5850 5848 5846 5843 5841 5839 5836 5834 5831 5828 5826 5823 5820 5818 5815
5914 5911 5908 5905 5902 5899 5895 5891 5888 5885 5882 5880 5878 5876 5874 5872 5870 5867 5865 5863 5861 5859 5857 5856 5854 5852 5849 5847 5845 5843 5841 5838 5836 5833 5831 5828 5825 5822 5820 5817 5814 5811 5808
5912 5909 5906 5903 5900 5896 5893 5889 5885 5882 5880 5878 5875 5873 5871 5869 5866 5864 5862 5860 5857 5855 5853 5851 5849 5847 5845 5843 5841 5838 5835 5833 5830 5827 5825 5822 5819 5816 5813 5810 5807 5804 5802
5909 5906 5903 5900 5897 5894 5890 5887 5884 5880 5878 5875 5873 5870 5868 5865 5863 5860 5858 5856 5854 5851 5849 5847 5844 5842 5840 5838 5835 5833 5830 5827 5825 5822 5819 5815 5812 5810 5807 5803 5800 5797 5794
5906 5903 5900 5897 5894 5891 5887 5884 5881 5878 5875 5872 5869 5867 5864 5862 5859 5856 5854 5852 5849 5847 5844 5842 5840 5837 5835 5832 5830 5827 5824 5821 5818 5815 5812 5809 5806 5802 5799 5796 5793 5790 5786
5901 5899 5896 5893 5891 5888 5884 5881 5878 5875 5872 5869 5866 5863 5860 5857 5855 5852 5850 5847 5844 5842 5840 5837 5834 5832 5829 5826 5824 5821 5818 5815 5812 5808 5805 5801 5798 5795 5792 5789 5785 5782 5778
5896 5894 5891 5889 5886 5883 5880 5877 5874 5870 5867 5864 5861 5858 5856 5853 5850 5848 5845 5842 5839 5837 5834 5832 5829 5826 5823 5820 5817 5814 5811 5808 5805 5801 5798 5794 5791 5787 5784 5781 5777 5774 5770
5890 5888 5886 5884 5881 5879 5876 5872 5869 5865 5862 5859 5856 5854 5851 5848 5845 5843 5840 5837 5834 5831 5829 5826 5823 5820 5817 5814 5811 5808 5804 5801 5797 5794 5790 5786 5783 5780 5776 5773 5769 5766 5762
5885 5883 5881 5879 5876 5873 5870 5867 5863 5859 5856 5854 5851 5848 5845 5842 5840 5837 5834 5831 5829 5826 5823 5820 5817 5814 5810 5807 5804 5800 5797 5793 5790 5786 5783 5779 5775 5772 5768 5765 5761 5758 5754
5879 5877 5875 5873 5870 5867 5864 5861 5857 5854 5851 5848 5845 5842 5840 5837 5834 5831 5828 5825 5822 5819 5816 5813 5810 5807 5803 5800 5797 5793 5790 5786 5782 5779 5775 5772 5768 5765 5761 5757 5754 5750 5746
5873 5871 5868 5866 5863 5861 5857 5855 5851 5847 5845 5841 5839 5836 5833 5831 5828 5825 5822 5819 5816 5813 5809 5806 5803 5800 5796 5793 5789 5786 5782 5779 5775 5771 5768 5764 5761 5757 5753 5750 5746 5742 5739
5866 5863 5861 5858 5856 5853 5850 5848 5845 5842 5838 5836 5833 5830 5827 5824 5821 5818 5815 5812 5809 5806 5802 5799 5796 5793 5789 5786 5782 5778 5775 5772 5768 5764 5760 5757 5753 5749 5745 5741 5738 5734 5731
5857 5855 5853 5850 5848 5845 5843 5840 5837 5834 5831 5828 5826 5823 5820 5817 5814 5811 5808 5805 5801 5798 5795 5792 5789 5785 5782 5778 5775 5771 5767 5764 5760 5756 5753 5749 5745 5741 5737 5733 5730 5726 5722
5849 5847 5844 5842 5839 5837 5834 5832 5829 5827 5824 5821 5818 5815 5813 5810 5806 5803 5800 5797 5794 5791 5787 5784 5781 5777 5774 5770 5767 5763 5760 5756 5752 5748 5745 5741 5737 5733 5730 5726 5722 5718 5714
5839 5837 5835 5833 5830 5828 5826 5823 5820 5818 5816 5813 5810 5807 5804 5801 5798 5795 5792 5789 5786 5783 5779 5776 5773 5769 5766 5762 5758 5755 5751 5748 5744 5740 5737 5733 5729 5725 5722 5718 5714 5711 5707
5830 5828 5826 5824 5821 5819 5816 5814 5812 5809 5806 5804 5801 5799 5796 5793 5789 5786 5783 5780 5778 5774 5771 5768 5764 5761 5758 5754 5751 5747 5743 5740 5736 5732 5729 5725 5721 5718 5714 5711 5707 5703 5699
5820 5818 5816 5814 5812 5809 5807 5805 5802 5799 5797 5794 5792 5789 5786 5784 5780 5778 5775 5772 5769 5766 5763 5760 5756 5753 5749 5746 5742 5738 5735 5731 5728 5724 5720 5717 5713 5710 5706 5703 5699 5695 5692
5810 5808 5806 5804 5802 5800 5798 5795 5793 5790 5788 5785 5783 5780 5777 5774 5772 5769 5766 5763 5760 5757 5754 5751 5748 5744 5741 5737 5734 5730 5727 5723 5720 5716 5713 5709 5705 5702 5698 5695 5691 5687 5684
5800 5798 5797 5795 5793 5791 5788 5786 5784 5781 5778 5776 5774 5771 5768 5765 5762 5760 5757 5754 5751 5748 5745 5742 5739 5736 5732 5729 5725 5722 5718 5715 5711 5708 5704 5701 5697 5694 5690 5687 5683 5679 5675
5790 5788 5786 5785 5783 5781 5778 5776 5774 5771 5769 5766 5764 5761 5759 5756 5753 5750 5747 5745 5742 5739 5736 5733 5730 5727 5723 5720 5716 5713 5710 5706 5703 5699 5696 5692 5689 5685 5682 5678 5674 5671 5667
5780 5778 5776 5774 5772 5770 5768 5766 5764 5762 5760 5757 5754 5752 5749 5746 5744 5741 5739 5736 5733 5730 5727 5724 5721 5718 5714 5711 5707 5704 5701 5697 5694 5690 5687 5684 5680 5677 5673 5669 5665 5662 5658
5770 5768 5766 5764 5762 5760 5758 5756 5754 5752 5750 5748 5745 5743 5740 5738 5735 5732 5730 5727 5724 5721 5718 5715 5712 5708 5705 5702 5698 5695 5691 5688 5685 5682 5678 5675 5671 5668 5664 5660 5656 5653 5649
5760 5758 5756 5754 5753 5751 5749 5747 5745 5743 5741 5738 5736 5734 5731 5729 5726 5723 5720 5718 5715 5712 5709 5706 5703 5699 5696 5693 5689 5686 5682 5679 5676 5672 5669 5666 5662 5658 5655 5651 5647 5644 5640